Weather observations for the past three days for
Perry-Houston County Airport
Imperial (Metric)
Date Time (edt) Wind (mph) Vis. (mi.) Weather Sky Cond. Temperature (ºF) Relative Humidity Wind Chill (°F) Heat Index (°F) Pressure Precipitation (in)
Air Dwpt 6 hour altimeter (in) sea level (mb) 1 hr 3 hr 6 hr
Max. Min.
21 19:35 NE 7 10.00 Light Rain SCT050 SCT065 BKN085 72.5 72.5 100% 30.05 0.0
21 19:15 N 10 5.00 Heavy Rain Fog/Mist SCT019 BKN060 OVC095 72.9 71.8 96% 30.05 0.0
21 18:55 NW 15 G 20 3.00 Thunderstorm Heavy Rain Fog/Mist SCT015 BKN029 OVC055 74.5 72.3 93% 30.07 0.0
21 18:15 S 8 10.00 Thunderstorm in Vicinity CLR 82.4 73.6 75% 88 30.03 0.0
21 17:55 S 12 10.00 Thunderstorm in Vicinity SCT090 83.5 73.2 71% 90 30.03 0.0
21 16:55 S 8 10.00 Fair CLR 85.8 74.7 69% 94 30.02 0.0
21 16:35 S 8 7.00 Partly Cloudy SCT070 SCT085 SCT120 86.4 75 69% 96 30.02 0.0
21 16:15 Calm 10.00 Overcast SCT035 SCT048 OVC070 85.5 74.8 71% 94 30.03 0.0
21 15:55 SE 8 10.00 Overcast BKN033 BKN044 OVC080 87.6 74.1 64% 96 30.04 0.0
21 15:35 SE 7 10.00 Mostly Cloudy SCT033 BKN046 BKN055 86.7 74.1 66% 95 30.04 0.0
21 15:15 SE 5 10.00 Partly Cloudy SCT031 SCT048 87.3 74.8 67% 97 30.04 0.0
21 14:55 S 6 10.00 Fair CLR 86.7 73.2 64% 94 30.04 0.0
21 14:35 SE 3 10.00 Fair CLR 85.8 73.2 66% 93 30.05 0.0
21 14:15 SE 5 10.00 Fair CLR 84.9 73.4 68% 92 30.06 0.0
21 13:55 NW 3 10.00 Partly Cloudy SCT036 SCT060 84.6 73.6 85.3 72.5 70% 92 30.07 0.0
21 13:35 S 3 7.00 Mostly Cloudy SCT022 BKN036 BKN060 82.9 75 77% 90 30.09 0.0
21 13:15 Calm 10.00 Overcast BKN020 BKN026 OVC038 81.7 74.3 78% 88 30.1 0.0
21 12:55 Calm 10.00 Overcast SCT018 OVC028 82.2 74.1 77% 88 30.11 0.0
21 12:35 Calm 10.00 Overcast SCT014 OVC025 81.1 73.9 79% 87 30.1 0.0
21 12:15 Calm 10.00 Overcast BKN014 OVC021 81 75 82% 87 30.11 0.0
21 11:55 Calm 10.00 Overcast OVC014 79.3 74.5 85% 83 30.11 0.0
21 11:35 Calm 10.00 Overcast OVC013 79.7 74.7 85% 84 30.11 0.0
21 11:15 Calm 10.00 Overcast OVC008 77.4 74.3 90% 79 30.1 0.0
21 10:55 Calm 10.00 Overcast OVC008 77.4 74.8 92% 79 30.1 0.0
21 10:35 Calm 10.00 Overcast OVC006 76.1 74.1 94% 76 30.1 0.0
21 10:15 SW 5 10.00 Overcast OVC006 75.6 73.9 95% 74 30.1 0.0
21 09:55 SW 5 10.00 Overcast OVC006 75 73.8 96% 73 30.1 0.0
21 09:35 SW 3 10.00 Overcast OVC006 74.5 73.8 98% 30.1 0.0
21 09:15 SW 5 10.00 Overcast OVC004 73.4 0 0% 30.11 0.0
21 08:55 SW 5 10.00 Overcast OVC004 73.4 0 0% 30.11 0.0
21 08:35 SW 5 7.00 Overcast OVC004 73.4 0 0% 30.11 0.0
21 08:15 S 5 7.00 Overcast OVC004 73.4 0 0% 30.11 0.0
21 07:55 S 3 10.00 Overcast OVC006 73.4 0 72.9 70.7 0% 30.11 0.0
21 07:35 S 3 7.00 Overcast OVC006 73.4 0 0% 30.11 0.0
21 07:15 S 3 10.00 Overcast OVC006 71.6 0 0% 30.1 0.0
21 06:55 SW 3 10.00 Overcast OVC006 71.6 0 0% 30.1 0.0
21 06:35 Calm 10.00 Overcast OVC004 71.6 0 0% 30.1 0.0
21 06:15 S 3 10.00 Overcast OVC004 71.6 0 0% 30.1 0.0
21 05:55 SW 5 10.00 Overcast OVC004 71.6 0 0% 30.1 0.0
21 05:35 SW 5 10.00 Overcast OVC004 71.6 0 0% 30.09 0.0
21 05:15 SW 3 10.00 Overcast OVC004 71.6 0 0% 30.09 0.0
21 04:55 SW 3 10.00 Overcast OVC004 71.6 0 0% 30.09 0.0
21 04:35 Calm 10.00 Overcast OVC006 71.6 0 0% 30.09 0.0
21 04:15 Calm 7.00 Overcast OVC004 71.6 0 0% 30.09 0.0
21 03:55 Calm 7.00 Mostly Cloudy SCT002 BKN018 71.6 0 0% 30.09 0.0
21 03:35 Calm 10.00 Mostly Cloudy SCT003 BKN018 71.6 0 0% 30.09 0.0
21 03:15 Calm 10.00 Mostly Cloudy BKN003 71.6 0 0% 30.1 0.0
21 02:55 Calm 10.00 Overcast OVC003 71.6 0 0% 30.1 0.0
21 02:35 S 5 10.00 Partly Cloudy SCT003 71.6 0 0% 30.1 0.0
21 02:15 S 3 10.00 Partly Cloudy SCT003 71.6 0 0% 30.11 0.0
21 01:55 S 3 10.00 Mostly Cloudy BKN003 71.6 0 75.6 71.6 0% 30.11 0.0
21 01:35 S 8 10.00 Overcast OVC003 71.6 0 0% 30.11 0.0
21 01:15 S 8 10.00 Overcast OVC003 71.6 0 0% 30.11 0.0
21 00:55 SE 6 10.00 Mostly Cloudy BKN003 71.6 0 0% 30.11 0.0
21 00:35 SE 3 10.00 Fair CLR 71.6 0 0% 30.12 0.0
21 00:15 Calm 10.00 Fair CLR 71.6 0 0% 30.12 0.0
20 23:55 Calm 10.00 Fair CLR 71.6 0 0% 30.12 0.0
20 23:35 Calm 10.00 Fair CLR 71.6 0 0% 30.12 0.0
20 23:15 SE 3 10.00 Fair CLR 73.4 0 0% 30.12 0.0
20 22:55 Calm 10.00 Fair CLR 73.4 0 0% 30.13 0.0
20 22:35 Calm 10.00 Fair CLR 73.4 73.4 100% 30.14 0.0
20 22:15 SE 3 10.00 Fair CLR 72.9 72.7 99% 30.13 0.0
20 21:55 SE 5 10.00 Fair CLR 73.4 73 99% 30.13 0.0
20 21:35 Calm 10.00 Fair CLR 73.8 73 98% 30.13 0.0
20 21:15 S 5 10.00 Fair CLR 73.9 73.2 98% 30.12 0.0
20 20:55 Calm 10.00 Fair CLR 75.2 75.2 100% 73 30.1 0.0
20 20:35 S 5 10.00 Fair CLR 74.7 74.3 99% 30.08 0.0
20 20:15 S 5 10.00 Fair CLR 75.2 74.8 99% 73 30.06 0.0
20 19:55 S 6 10.00 Fair CLR 75.4 74.7 80.4 75.2 98% 74 30.06 0.0
20 19:35 S 6 10.00 Fair CLR 75.9 75.6 99% 75 30.07 0.0
20 19:15 SE 5 10.00 Partly Cloudy SCT007 SCT048 SCT120 76.1 75.9 99% 75 30.07 0.0
20 18:55 S 6 10.00 Light Rain BKN005 BKN046 OVC070 77 0 0% 30.09 0.0
20 18:35 S 8 10.00 Thunderstorm Light Rain in Vicinity BKN003 BKN024 BKN110 77 0 0% 30.11 0.0
20 18:15 S 8 10.00 Light Rain BKN110 75.2 0 0% 30.1 0.0
20 17:55 SW 5 10.00 Rain BKN120 75.6 75.4 99% 74 30.1 0.0
20 17:35 SW 3 10.00 Rain BKN120 75.4 75 99% 73 30.1 0.0
20 17:15 Calm 10.00 Rain BKN120 75.2 75.2 100% 73 30.1 0.0
20 16:55 S 6 5.00 Rain Fog/Mist SCT120 76.6 76.5 99% 77 30.08 0.0
20 16:35 SE 3 7.00 Rain BKN120 76.6 75.7 97% 77 30.09 0.0
20 16:15 S 3 10.00 Rain SCT100 BKN120 77.2 75.4 94% 78 30.1 0.0
20 15:55 Calm 10.00 Partly Cloudy SCT007 SCT060 SCT100 78.1 75 90% 81 30.11 0.0
20 15:35 E 5 10.00 Thunderstorm in Vicinity BKN007 BKN012 BKN017 78.3 75 90% 81 30.1 0.0
20 15:15 SE 6 10.00 Mostly Cloudy SCT007 BKN017 79.7 76.8 91% 85 30.12 0.0
20 14:55 S 6 10.00 Thunderstorm in Vicinity SCT012 BKN017 OVC024 76.6 76.1 98% 77 30.12 0.0
20 14:35 SE 8 10.00 Thunderstorm Light Rain SCT016 BKN050 BKN070 77.2 76.1 96% 78 30.12 0.0
20 14:15 SE 3 10.00 Thunderstorm Light Rain SCT050 SCT065 BKN120 79.7 77.5 93% 85 30.13 0.0
20 13:55 N 6 10.00 Thunderstorm Rain in Vicinity SCT041 SCT055 BKN110 80.2 76.3 86 73 88% 86 30.1 0.0
20 13:35 NW 3 10.00 Thunderstorm in Vicinity SCT030 BKN050 OVC075 83.3 74.5 75% 90 30.12 0.0
20 13:15 N 5 10.00 Thunderstorm in Vicinity SCT020 SCT030 BKN049 84.7 74.7 72% 93 30.12 0.0
20 12:55 NE 6 10.00 Thunderstorm BKN021 BKN036 BKN060 83.8 75.7 77% 92 30.12 0.0
20 12:35 Calm 10.00 Mostly Cloudy BKN019 83.7 76.3 79% 93 30.13 0.0
20 12:15 N 5 10.00 Mostly Cloudy SCT016 BKN030 BKN037 82.4 75.4 79% 90 30.13 0.0
20 11:55 Calm 10.00 Mostly Cloudy SCT014 BKN028 BKN037 80.6 74.5 82% 86 30.13 0.0
20 11:35 NW 3 10.00 Mostly Cloudy BKN012 79.9 75 85% 85 30.15 0.0
20 11:15 Calm 10.00 Overcast OVC009 79.2 75 87% 83 30.15 0.0
20 10:55 W 3 10.00 Overcast OVC009 78.1 74.8 90% 81 30.15 0.0
20 10:35 Calm 10.00 Overcast OVC009 77.2 74.3 91% 79 30.15 0.0
20 10:15 S 6 10.00 Overcast OVC009 77.5 74.7 91% 79 30.14 0.0
20 09:55 S 3 10.00 Overcast OVC007 76.5 74.5 94% 77 30.14 0.0
20 09:35 S 3 10.00 Overcast OVC007 75.9 74.1 94% 75 30.14 0.0
20 09:15 Calm 10.00 Overcast OVC005 75.9 74.1 94% 75 30.13 0.0
20 08:55 SE 3 10.00 Overcast OVC005 74.8 74.1 98% 30.13 0.0
20 08:35 E 3 10.00 Overcast BKN003 OVC016 73.4 0 0% 30.12 0.0
20 08:15 Calm 10.00 Overcast SCT003 OVC016 73.4 0 0% 30.12 0.0
20 07:55 SE 3 10.00 Mostly Cloudy SCT003 BKN016 BKN022 73.4 0 73.4 72.1 0% 30.12 0.0
20 07:35 SE 3 7.00 Mostly Cloudy BKN003 BKN022 73.4 0 0% 30.11 0.0
20 07:15 Calm 7.00 Partly Cloudy SCT003 SCT041 73.4 0 0% 30.11 0.0
20 06:55 Calm 7.00 Mostly Cloudy SCT003 SCT007 BKN043 73.4 0 0% 30.11 0.0
20 06:35 Calm 10.00 Overcast BKN003 OVC027 73.4 0 0% 30.1 0.0
20 06:15 Calm 10.00 Overcast SCT003 BKN016 OVC038 73.4 0 0% 30.1 0.0
20 05:55 E 3 10.00 Light Rain BKN003 BKN015 OVC032 73.4 0 0% 30.09 0.0
20 05:35 SE 3 10.00 Mostly Cloudy BKN032 73.4 0 0% 30.09 0.0
20 05:15 Calm 10.00 Partly Cloudy SCT007 73.4 0 0% 30.09 0.0
20 04:55 Calm 10.00 Mostly Cloudy BKN007 BKN011 BKN120 73.4 0 0% 30.09 0.0
20 04:35 Calm 7.00 Mostly Cloudy with Haze BKN005 BKN011 BKN120 73.4 0 0% 30.09 0.0
20 04:15 Calm 7.00 Mostly Cloudy with Haze BKN005 BKN100 BKN120 71.6 0 0% 30.1 0.0
20 03:55 Calm 7.00 Partly Cloudy SCT005 SCT044 SCT100 71.6 0 0% 30.09 0.0
20 03:35 Calm 10.00 Partly Cloudy SCT005 SCT055 SCT080 73.4 0 0% 30.08 0.0
20 03:15 Calm 10.00 Overcast OVC003 73.4 0 0% 30.09 0.0
20 02:55 SE 5 7.00 Overcast with Haze OVC003 73.4 0 0% 30.09 0.0
20 02:35 Calm 5.00 Overcast with Haze OVC003 73.4 0 0% 30.1 0.0
20 02:15 Calm 3.50 Fog/Mist OVC003 73.4 0 0% 30.1 0.0
20 01:55 S 5 1.25 Fog/Mist OVC003 73.4 0 75.6 72.7 0% 30.11 0.0
20 01:35 Calm 1.50 Fog/Mist OVC003 73.4 0 0% 30.12 0.0
20 01:15 Calm 4.00 Overcast with Haze OVC003 73.4 0 0% 30.11 0.0
20 00:55 Calm 5.00 Overcast with Haze OVC003 73.4 0 0% 30.11 0.0
20 00:35 S 3 10.00 Overcast OVC003 73.4 0 0% 30.11 0.0
20 00:15 Calm 10.00 Overcast OVC003 73.4 0 0% 30.12 0.0
19 23:55 SE 3 10.00 Overcast OVC005 73.4 0 0% 30.11 0.0
19 23:35 Calm 10.00 Overcast OVC005 73.4 0 0% 30.1 0.0
19 23:15 SE 5 10.00 Overcast OVC005 73.4 0 0% 30.1 0.0
19 22:55 Calm 10.00 Overcast OVC005 73.4 0 0% 30.1 0.0
19 22:35 SE 5 10.00 Overcast OVC005 73.4 0 0% 30.1 0.0
19 22:15 SE 3 10.00 Overcast OVC005 73.4 0 0% 30.1 0.0
19 21:55 SE 3 5.00 Overcast with Haze OVC005 73.4 0 0% 30.1 0.0
19 21:35 S 5 10.00 Overcast OVC005 75.2 0 0% 30.1 0.0
19 21:15 SE 6 10.00 Mostly Cloudy BKN005 75.2 0 0% 30.09 0.0
19 20:55 SE 3 7.00 Partly Cloudy SCT005 75.2 75.2 100% 73 30.09 0.0
19 20:35 SE 3 10.00 Fair CLR 75.4 74.8 98% 73 30.09 0.0
19 20:15 Calm 10.00 Mostly Cloudy BKN005 75.4 74.8 98% 73 30.07 0.0
19 19:55 Calm 4.00 Fog/Mist OVC005 74.8 74.3 87.8 72.7 98% 30.06 0.0
19 19:35 SW 3 10.00 Overcast OVC005 75.2 74.3 97% 73 30.06 0.0
19 19:15 Calm 10.00 Overcast OVC005 75 73.9 96% 73 30.06 0.0
19 18:55 SW 3 10.00 Overcast OVC005 74.5 73.2 96% 30.06 0.0
19 18:35 S 5 10.00 Mostly Cloudy BKN007 75.2 73.4 94% 74 30.07 0.0
19 18:15 S 7 10.00 Partly Cloudy SCT007 SCT060 SCT120 74.3 72.3 94% 30.07 0.0
19 17:55 S 6 10.00 Light Rain SCT075 SCT100 SCT120 73.8 72.5 96% 30.07 0.0
19 17:35 SE 5 10.00 Light Rain SCT120 73 71.6 95% 30.06 0.0
19 17:15 S 3 10.00 Light Rain SCT037 SCT055 BKN110 73 71.2 94% 30.06 0.0
19 16:55 S 7 10.00 Light Rain OVC110 73.2 70.9 92% 30.06 0.0
19 16:35 S 5 10.00 Light Rain SCT050 SCT075 OVC110 73.2 71.1 93% 30.07 0.0
19 16:15 S 10 10.00 Thunderstorm Light Rain SCT024 SCT039 OVC050 73.6 70.5 90% 30.08 0.0
19 15:55 SW 22 G 32 10.00 Thunderstorm and Breezy SCT024 79 70.3 75% 82 30.09 0.0
19 15:35 W 8 10.00 Fair CLR 84 74.8 74% 92 30.07 0.0
19 15:15 W 8 10.00 Partly Cloudy SCT065 SCT075 84.9 73.9 70% 92 30.08 0.0
19 14:55 W 9 10.00 Partly Cloudy SCT032 SCT041 SCT075 86.5 74.1 67% 95 30.07 0.0
19 14:35 W 7 10.00 Mostly Cloudy SCT027 BKN033 87.3 74.3 65% 96 30.07 0.0
19 14:15 N 3 10.00 Mostly Cloudy SCT027 BKN035 85.1 74.3 70% 93 30.07 0.0
19 13:55 Calm 10.00 Partly Cloudy SCT025 SCT032 84.9 73.8 85.3 72.3 69% 92 30.08 0.0
19 13:35 W 3 10.00 Partly Cloudy SCT031 84.2 74.1 72% 92 30.09 0.0
19 13:15 Calm 10.00 Fair CLR 84.2 74.5 73% 92 30.1 0.0
19 12:55 Calm 10.00 Partly Cloudy SCT023 83.8 75 75% 92 30.1 0.0
19 12:35 Calm 10.00 Partly Cloudy SCT021 83.3 74.1 74% 90 30.1 0.0
19 12:15 Calm 10.00 Mostly Cloudy BKN019 83.8 75 75% 92 30.1 0.0
19 11:55 Calm 10.00 Partly Cloudy SCT019 82.6 74.5 77% 89 30.1 0.0
19 11:15 SW 6 10.00 Mostly Cloudy BKN019 BKN120 82 75.2 80% 89 30.11 0.0
19 10:55 S 5 10.00 Mostly Cloudy BKN017 81.5 75.4 82% 88 30.11 0.0
19 10:35 S 5 10.00 Mostly Cloudy BKN015 81 74.8 82% 87 30.11 0.0
19 10:15 S 3 10.00 Mostly Cloudy BKN011 79.9 75 85% 85 30.1 0.0
19 09:55 SW 3 10.00 Mostly Cloudy BKN009 77.9 73.8 87% 80 30.1 0.0
19 09:35 S 3 10.00 Mostly Cloudy BKN007 78.1 74.3 88% 81 30.1 0.0
19 09:15 Calm 10.00 Partly Cloudy SCT007 76.5 73.4 90% 77 30.09 0.0
19 08:55 Calm 10.00 Mostly Cloudy BKN005 74.3 72.7 95% 30.09 0.0
19 08:35 Calm 7.00 Mostly Cloudy BKN003 BKN120 73.8 73.4 99% 30.09 0.0
19 08:15 Calm 7.00 Overcast OVC003 73.4 0 0% 30.08 0.0
19 07:55 N 3 10.00 Partly Cloudy SCT003 71.6 0 72.9 70.9 0% 30.08 0.0
19 07:35 N 3 10.00 Fair CLR 71.6 0 0% 30.07 0.0
19 07:15 Calm 10.00 Fair CLR 71.6 0 0% 30.06 0.0
19 06:55 Calm 7.00 Fair CLR 71.6 0 0% 30.06 0.0
19 06:35 Calm 10.00 Fair CLR 71.6 0 0% 30.05 0.0
19 06:15 Calm 10.00 Fair CLR 71.2 71.2 100% 30.05 0.0
19 05:55 W 5 10.00 Partly Cloudy SCT120 71.2 71.1 99% 30.04 0.0
19 05:35 Calm 10.00 Fair CLR 71.6 0 0% 30.04 0.0
19 05:15 SW 5 10.00 Fair CLR 71.6 71.6 100% 30.04 0.0
19 04:55 W 3 10.00 Fair CLR 71.6 71.4 99% 30.03 0.0
19 04:35 Calm 10.00 Fair CLR 71.8 71.8 100% 30.03 0.0
19 04:15 SW 6 10.00 Fair CLR 71.6 0 0% 30.03 0.0
19 03:55 SW 3 10.00 Fair CLR 71.6 0 0% 30.03 0.0
19 03:35 S 6 10.00 Fair CLR 71.6 0 0% 30.02 0.0
19 03:15 S 5 10.00 Fair CLR 71.6 0 0% 30.02 0.0
19 02:55 S 3 10.00 Fair CLR 71.6 0 0% 30.03 0.0
19 02:35 S 3 10.00 Light Rain SCT070 SCT120 73.4 0 0% 30.04 0.0
19 02:15 SW 7 10.00 Light Rain SCT120 73.4 0 0% 30.05 0.0
19 01:55 S 3 10.00 Fair CLR 73.4 71.6 86.2 71.8 94% 30.06 0.0
19 01:35 S 3 10.00 Partly Cloudy SCT120 72.3 72.1 99% 30.06 0.0
19 01:15 SE 5 10.00 Mostly Cloudy SCT070 SCT100 BKN120 72 72 100% 30.07 0.0
19 00:55 SW 7 10.00 Light Rain SCT048 SCT075 BKN100 72.1 72 99% 30.08 0.0
19 00:35 N 6 7.00 Light Rain Fog/Mist SCT023 BKN085 OVC110 72.1 71.6 98% 30.07 0.0
19 00:15 NW 13 4.00 Heavy Rain Fog/Mist SCT010 BKN022 OVC060 72.5 71.4 96% 30.09 0.0
18 23:55 NW 8 10.00 Overcast SCT011 BKN026 OVC042 73.8 72 94% 30.09 0.0
18 23:35 E 6 10.00 Mostly Cloudy SCT038 BKN046 BKN055 73.6 72.7 97% 30.06 0.0
18 23:15 N 8 10.00 Mostly Cloudy SCT010 BKN034 BKN047 73.6 72.5 96% 30.07 0.0
18 22:55 N 10 10.00 Rain SCT010 BKN034 OVC042 74.5 72.1 92% 30.08 0.0
18 22:35 NE 9 10.00 Overcast BKN034 BKN042 OVC050 75 72.5 92% 74 30.07 0.0
18 22:15 NE 6 10.00 Overcast SCT017 BKN034 OVC043 75 73 94% 73 30.06 0.0
18 21:55 N 12 10.00 Overcast SCT021 BKN037 OVC045 76.5 72.7 88% 77 30.06 0.0
18 21:35 E 8 10.00 Thunderstorm in Vicinity OVC037 80.4 71.1 73% 84 30.04 0.0
18 21:15 N 6 10.00 Overcast BKN037 OVC046 81.3 70.9 71% 85 30.03 0.0
18 20:55 N 7 10.00 Overcast BKN044 OVC060 82.6 71.4 69% 87 30.02 0.0
18 20:35 W 3 10.00 Mostly Cloudy BKN060 84.2 72.9 69% 91 30.02 0.0
18 20:15 SW 7 10.00 Fair CLR 85.1 72.5 66% 91 30 0.0
18 19:55 SW 12 10.00 Fair CLR 86.4 72.1 91.4 86.2 63% 93 29.99 0.0
Date Time (edt) Wind (mph) Vis. (mi.) Weather Sky Cond. Air Dwpt Max. Min. Relative Humidity Wind Chill (°F) Heat Index (°F) altimeter (in) sea level (mb) 1 hr 3 hr 6 hr
6 hour
Temperature (ºF) Pressure Precipitation (in)